Location: Newark
(55.7167°N, 12.5667°E)
Time: 21:52:11
(UTC+00:00)

Envisat - Visible Passes

Search period start: 07 December 2019 00:00
Search period end: 17 December 2019 00:00
Orbit: 764 x 766 km, 98.1° (Epoch: 07 December)

Date Brightness Start Highest point End Pass type
(mag) Time Alt. Az. Time Alt. Az. Time Alt. Az.
07 Dec 5.7 04:51:03 10° NE 04:54:45 20° E 04:58:26 10° SE visible
07 Dec 3.0 06:29:19 10° NNE 06:34:26 83° WNW 06:39:31 10° SSW visible
07 Dec 3.1 16:12:36 10° SE 16:17:31 52° ENE 16:22:28 10° N visible
07 Dec 4.8 17:52:17 10° SSW 17:56:48 31° W 18:01:21 10° NNW visible
08 Dec 6.3 04:16:33 10° ENE 04:17:22 10° E 04:18:11 10° E visible
08 Dec 3.9 05:52:34 10° NNE 05:57:35 55° E 06:02:34 10° S visible
08 Dec 3.7 15:36:35 10° ESE 15:40:59 31° ENE 15:45:24 10° N visible
08 Dec 3.6 17:14:46 10° S 17:19:47 58° W 17:24:50 10° NNW visible
08 Dec 6.2 18:58:31 10° W 18:59:57 11° W 19:01:22 10° WNW visible
09 Dec 5.0 05:16:04 10° NNE 05:20:33 30° E 05:24:59 10° SSE visible
09 Dec 2.9 16:37:52 10° SSE 16:42:57 79° ENE 16:48:04 10° NNW visible
09 Dec 5.4 18:18:47 10° SW 18:22:36 21° W 18:26:25 10° NW visible
10 Dec 5.9 04:40:06 10° NE 04:43:19 17° E 04:46:30 10° SE visible
10 Dec 3.1 06:18:01 10° NNE 06:23:09 84° ESE 06:28:15 10° SSW visible
10 Dec 3.3 16:01:29 10° SE 16:06:17 44° ENE 16:11:07 10° N visible
10 Dec 4.4 17:40:43 10° SSW 17:45:26 37° W 17:50:11 10° NNW visible
11 Dec 4.2 05:41:20 10° NNE 05:46:15 45° E 05:51:07 10° S visible
11 Dec 3.9 15:25:38 10° ESE 15:29:48 26° NE 15:34:00 10° N visible
11 Dec 3.3 17:03:24 10° S 17:08:28 69° WSW 17:13:34 10° NNW visible
11 Dec 6.0 18:45:59 10° WSW 18:48:28 14° W 18:50:58 10° NW visible
12 Dec 5.3 05:04:57 10° NE 05:09:09 25° E 05:13:20 10° SE visible
12 Dec 2.9 16:26:39 10° SSE 16:31:41 66° ENE 16:36:45 10° NNW visible
12 Dec 5.2 18:07:02 10° SW 18:11:10 25° W 18:15:21 10° NW visible
13 Dec 6.1 04:29:17 10° NE 04:31:51 14° E 04:34:24 10° ESE visible
13 Dec 3.4 06:06:44 10° NNE 06:11:51 70° ESE 06:16:55 10° S visible
13 Dec 3.5 15:50:25 10° SE 15:55:04 38° ENE 15:59:45 10° N visible
13 Dec 4.1 17:29:13 10° S 17:34:05 45° W 17:38:58 10° NNW visible
14 Dec 4.6 05:30:08 10° NNE 05:34:53 38° E 05:39:37 10° SSE visible
14 Dec 4.1 15:14:43 10° ESE 15:18:38 23° NE 15:22:33 10° N visible
14 Dec 3.0 16:52:04 10° SSE 16:57:10 82° WSW 17:02:17 10° NNW visible
14 Dec 5.8 18:33:51 10° WSW 18:37:01 16° W 18:40:11 10° NW visible
15 Dec 5.6 04:53:53 10° NE 04:57:44 21° E 05:01:34 10° SE visible
15 Dec 3.0 06:32:15 10° NNE 06:37:22 78° WNW 06:42:27 10° SSW visible
15 Dec 3.0 16:15:29 10° SE 16:20:26 56° ENE 16:25:25 10° N visible
15 Dec 4.9 17:55:21 10° SSW 17:59:46 29° W 18:04:14 10° NNW visible
16 Dec 6.2 04:18:49 10° ENE 04:20:22 11° E 04:21:56 10° E visible
16 Dec 3.7 05:55:29 10° NNE 06:00:32 59° E 06:05:33 10° S visible
16 Dec 3.7 15:39:24 10° ESE 15:43:52 32° ENE 15:48:22 10° N visible
16 Dec 3.7 17:17:45 10° S 17:22:44 54° W 17:27:44 10° NNW visible
16 Dec 6.2 19:02:24 10° W 19:02:58 10° W 19:03:31 10° WNW visible
